USA 169 (MILSTAR-2 4)

Last updated on Thu Nov 21 2024 00:02:40 GMT+0000 (Coordinated Universal Time)

1 27711U 03012A 24325.62886872 -.00000197 00000+0 00000+0 0 9993 2 27711 11.4724 34.2501 0095820 4.2619 40.1409 1.00270851 27203
UTC large
Height (km)
Speed (km/s)
/
Latitude / Longitude
Inclination (degrees)
Orbital Period (minutes)
Azimuth
Elevation
Range (km)
Doppler Factor

Next 0 passes for location: London (51.5072 / 0.1276)

Sorry there are no passes over London.